Time,TemperatureF,DewpointF,PressureIn,WindDirection,WindDirectionDegrees,WindSpeedMPH,WindSpeedGustMPH,Humidity,HourlyPrecipIn,Conditions,Clouds,dailyrainin,SoftwareType,DateUTC
2014-02-05 00:11:00,28.0,10.0,-100.00,NW,315,12.0,18.0,45,-99.99,,,-99.99,,2014-02-05 08:11:00,
2014-02-05 00:42:00,28.0,9.0,-100.00,West,270,9.0,14.0,45,-99.99,,,-99.99,,2014-02-05 08:42:00,
2014-02-05 00:52:00,28.0,9.0,-100.00,West,270,16.0,21.0,45,-99.99,,,-99.99,,2014-02-05 08:52:00,
2014-02-05 01:12:00,28.0,9.0,-100.00,West,270,15.0,21.0,45,-99.99,,,-99.99,,2014-02-05 09:12:00,
2014-02-05 01:22:00,28.0,9.0,-100.00,West,270,16.0,22.0,45,-99.99,,,-99.99,,2014-02-05 09:22:00,
2014-02-05 01:43:00,27.0,8.0,-100.00,West,270,11.0,15.0,44,-99.99,,,-99.99,,2014-02-05 09:43:00,
2014-02-05 01:53:00,27.0,8.0,-100.00,West,270,19.0,23.0,44,-99.99,,,-99.99,,2014-02-05 09:53:00,
2014-02-05 02:13:00,27.0,8.0,-100.00,West,270,9.0,14.0,44,-99.99,,,-99.99,,2014-02-05 10:13:00,
2014-02-05 02:23:00,27.0,8.0,-100.00,West,270,10.0,14.0,44,-99.99,,,-99.99,,2014-02-05 10:23:00,
2014-02-05 02:43:00,26.0,7.0,-100.00,West,270,12.0,17.0,44,-99.99,,,-99.99,,2014-02-05 10:43:00,
2014-02-05 02:52:00,26.0,7.0,-100.00,West,270,15.0,19.0,44,-99.99,,,-99.99,,2014-02-05 10:52:00,
2014-02-05 03:12:00,26.0,7.0,-100.00,West,270,19.0,23.0,44,-99.99,,,-99.99,,2014-02-05 11:12:00,
2014-02-05 03:22:00,26.0,7.0,-100.00,West,270,14.0,18.0,43,-99.99,,,-99.99,,2014-02-05 11:22:00,
2014-02-05 03:43:00,26.0,6.0,-100.00,West,270,14.0,18.0,43,-99.99,,,-99.99,,2014-02-05 11:43:00,
2014-02-05 03:52:00,26.0,6.0,-100.00,West,270,11.0,15.0,43,-99.99,,,-99.99,,2014-02-05 11:52:00,
2014-02-05 04:12:00,25.0,6.0,-100.00,West,270,17.0,21.0,43,-99.99,,,-99.99,,2014-02-05 12:12:00,
2014-02-05 04:22:00,25.0,6.0,-100.00,West,270,10.0,15.0,43,-99.99,,,-99.99,,2014-02-05 12:22:00,
2014-02-05 04:42:00,25.0,5.0,-100.00,West,270,8.0,12.0,42,-99.99,,,-99.99,,2014-02-05 12:42:00,
2014-02-05 04:52:00,25.0,5.0,-100.00,West,270,19.0,22.0,41,-99.99,,,-99.99,,2014-02-05 12:52:00,
2014-02-05 05:11:00,25.0,5.0,-100.00,West,270,17.0,25.0,41,-99.99,,,-99.99,,2014-02-05 13:11:00,
2014-02-05 05:22:00,25.0,5.0,-100.00,West,270,14.0,22.0,41,-99.99,,,-99.99,,2014-02-05 13:22:00,
2014-02-05 05:42:00,25.0,4.0,-100.00,West,270,13.0,17.0,41,-99.99,,,-99.99,,2014-02-05 13:42:00,
2014-02-05 05:52:00,25.0,4.0,-100.00,West,270,12.0,17.0,41,-99.99,,,-99.99,,2014-02-05 13:52:00,
2014-02-05 06:12:00,24.0,4.0,-100.00,West,270,12.0,14.0,41,-99.99,,,-99.99,,2014-02-05 14:12:00,
2014-02-05 06:21:00,24.0,4.0,-100.00,West,270,16.0,19.0,41,-99.99,,,-99.99,,2014-02-05 14:21:00,
2014-02-05 06:42:00,24.0,4.0,-100.00,West,270,11.0,19.0,41,-99.99,,,-99.99,,2014-02-05 14:42:00,
2014-02-05 06:52:00,24.0,4.0,-100.00,West,270,17.0,22.0,41,-99.99,,,-99.99,,2014-02-05 14:52:00,
2014-02-05 07:11:00,24.0,4.0,-100.00,West,270,13.0,18.0,42,-99.99,,,-99.99,,2014-02-05 15:11:00,
2014-02-05 07:21:00,24.0,4.0,-100.00,West,270,12.0,17.0,42,-99.99,,,-99.99,,2014-02-05 15:21:00,
2014-02-05 07:43:00,23.0,4.0,-100.00,West,270,14.0,19.0,42,-99.99,,,-99.99,,2014-02-05 15:43:00,
2014-02-05 07:53:00,23.0,4.0,-100.00,West,270,20.0,25.0,42,-99.99,,,-99.99,,2014-02-05 15:53:00,
2014-02-05 08:13:00,23.0,3.0,-100.00,West,270,19.0,27.0,42,-99.99,,,-99.99,,2014-02-05 16:13:00,
2014-02-05 08:23:00,23.0,3.0,-100.00,West,270,19.0,27.0,42,-99.99,,,-99.99,,2014-02-05 16:23:00,
2014-02-05 08:43:00,23.0,3.0,-100.00,West,270,17.0,24.0,42,-99.99,,,-99.99,,2014-02-05 16:43:00,
2014-02-05 08:53:00,23.0,3.0,-100.00,West,270,16.0,21.0,42,-99.99,,,-99.99,,2014-02-05 16:53:00,
2014-02-05 09:12:00,23.0,3.0,-100.00,West,270,18.0,23.0,41,-99.99,,,-99.99,,2014-02-05 17:12:00,
2014-02-05 09:22:00,23.0,3.0,-100.00,West,270,13.0,18.0,41,-99.99,,,-99.99,,2014-02-05 17:22:00,
2014-02-05 09:42:00,23.0,3.0,-100.00,West,270,21.0,24.0,41,-99.99,,,-99.99,,2014-02-05 17:42:00,
2014-02-05 09:52:00,23.0,3.0,-100.00,SW,225,16.0,22.0,41,-99.99,,,-99.99,,2014-02-05 17:52:00,
2014-02-05 10:12:00,23.0,3.0,-100.00,West,270,19.0,22.0,40,-99.99,,,-99.99,,2014-02-05 18:12:00,
2014-02-05 10:22:00,24.0,3.0,-100.00,SW,225,17.0,21.0,40,-99.99,,,-99.99,,2014-02-05 18:22:00,
2014-02-05 10:42:00,24.0,3.0,-100.00,West,270,15.0,20.0,40,-99.99,,,-99.99,,2014-02-05 18:42:00,
2014-02-05 11:11:00,25.0,3.0,-100.00,West,270,17.0,21.0,39,-99.99,,,-99.99,,2014-02-05 19:11:00,
2014-02-05 11:42:00,25.0,4.0,-100.00,SW,225,19.0,24.0,39,-99.99,,,-99.99,,2014-02-05 19:42:00,
2014-02-05 11:52:00,25.0,3.0,-100.00,SW,225,26.0,30.0,39,-99.99,,,-99.99,,2014-02-05 19:52:00,
2014-02-05 12:12:00,25.0,3.0,-100.00,West,270,17.0,29.0,38,-99.99,,,-99.99,,2014-02-05 20:12:00,
2014-02-05 12:21:00,25.0,3.0,-100.00,SW,225,21.0,24.0,38,-99.99,,,-99.99,,2014-02-05 20:21:00,
2014-02-05 12:42:00,26.0,4.0,-100.00,West,270,20.0,22.0,38,-99.99,,,-99.99,,2014-02-05 20:42:00,
2014-02-05 13:12:00,26.0,3.0,-100.00,SW,225,22.0,30.0,37,-99.99,,,-99.99,,2014-02-05 21:12:00,
2014-02-05 13:21:00,26.0,3.0,-100.00,SW,225,23.0,31.0,36,-99.99,,,-99.99,,2014-02-05 21:21:00,
2014-02-05 13:43:00,26.0,3.0,-100.00,SW,225,25.0,30.0,36,-99.99,,,-99.99,,2014-02-05 21:43:00,
2014-02-05 13:53:00,27.0,3.0,-100.00,West,270,19.0,27.0,35,-99.99,,,-99.99,,2014-02-05 21:53:00,
2014-02-05 14:13:00,27.0,3.0,-100.00,West,270,20.0,27.0,35,-99.99,,,-99.99,,2014-02-05 22:13:00,
2014-02-05 14:23:00,27.0,3.0,-100.00,West,270,19.0,27.0,35,-99.99,,,-99.99,,2014-02-05 22:23:00,
2014-02-05 14:42:00,27.0,2.0,-100.00,West,270,19.0,25.0,34,-99.99,,,-99.99,,2014-02-05 22:42:00,
2014-02-05 14:53:00,27.0,2.0,-100.00,West,270,19.0,25.0,34,-99.99,,,-99.99,,2014-02-05 22:53:00,
2014-02-05 15:11:00,27.0,2.0,-100.00,West,270,21.0,27.0,33,-99.99,,,-99.99,,2014-02-05 23:11:00,
2014-02-05 15:43:00,27.0,1.0,-100.00,West,270,21.0,26.0,33,-99.99,,,-99.99,,2014-02-05 23:43:00,
2014-02-05 15:53:00,26.0,1.0,-100.00,West,270,17.0,24.0,33,-99.99,,,-99.99,,2014-02-05 23:53:00,
2014-02-05 16:12:00,26.0,0.0,-100.00,West,270,24.0,29.0,32,-99.99,,,-99.99,,2014-02-06 00:12:00,
2014-02-05 16:21:00,26.0,0.0,-100.00,West,270,22.0,27.0,32,-99.99,,,-99.99,,2014-02-06 00:21:00,
2014-02-05 16:42:00,26.0,0.0,-100.00,West,270,17.0,22.0,32,-99.99,,,-99.99,,2014-02-06 00:42:00,
2014-02-05 16:52:00,25.0,0.0,-100.00,West,270,19.0,25.0,32,-99.99,,,-99.99,,2014-02-06 00:52:00,
2014-02-05 17:11:00,25.0,0.0,-100.00,West,270,16.0,21.0,32,-99.99,,,-99.99,,2014-02-06 01:11:00,
2014-02-05 17:21:00,25.0,-1.0,-100.00,West,270,19.0,29.0,32,-99.99,,,-99.99,,2014-02-06 01:21:00,
2014-02-05 17:42:00,24.0,-1.0,-100.00,West,270,19.0,22.0,32,-99.99,,,-99.99,,2014-02-06 01:42:00,
2014-02-05 17:52:00,24.0,-1.0,-100.00,West,270,22.0,29.0,32,-99.99,,,-99.99,,2014-02-06 01:52:00,
2014-02-05 18:12:00,24.0,-1.0,-100.00,West,270,21.0,28.0,33,-99.99,,,-99.99,,2014-02-06 02:12:00,
2014-02-05 19:11:00,23.0,-2.0,-100.00,West,270,21.0,30.0,33,-99.99,,,-99.99,,2014-02-06 03:11:00,
2014-02-05 19:22:00,23.0,-2.0,-100.00,SW,225,16.0,24.0,33,-99.99,,,-99.99,,2014-02-06 03:22:00,
2014-02-05 19:43:00,22.0,-2.0,-100.00,West,270,21.0,26.0,33,-99.99,,,-99.99,,2014-02-06 03:43:00,
2014-02-05 19:53:00,22.0,-2.0,-100.00,West,270,16.0,22.0,33,-99.99,,,-99.99,,2014-02-06 03:53:00,
2014-02-05 20:13:00,22.0,-2.0,-100.00,West,270,21.0,28.0,34,-99.99,,,-99.99,,2014-02-06 04:13:00,
2014-02-05 20:22:00,22.0,-2.0,-100.00,West,270,17.0,24.0,34,-99.99,,,-99.99,,2014-02-06 04:22:00,
2014-02-05 20:42:00,22.0,-2.0,-100.00,West,270,17.0,21.0,34,-99.99,,,-99.99,,2014-02-06 04:42:00,
2014-02-05 20:53:00,22.0,-2.0,-100.00,West,270,17.0,27.0,34,-99.99,,,-99.99,,2014-02-06 04:53:00,
2014-02-05 21:12:00,22.0,-2.0,-100.00,West,270,16.0,22.0,34,-99.99,,,-99.99,,2014-02-06 05:12:00,
2014-02-05 21:22:00,22.0,-2.0,-100.00,West,270,14.0,20.0,34,-99.99,,,-99.99,,2014-02-06 05:22:00,
2014-02-05 21:43:00,22.0,-2.0,-100.00,West,270,9.0,16.0,34,-99.99,,,-99.99,,2014-02-06 05:43:00,
2014-02-05 21:53:00,22.0,-2.0,-100.00,West,270,21.0,29.0,34,-99.99,,,-99.99,,2014-02-06 05:53:00,
2014-02-05 22:02:00,22.0,-2.0,-100.00,West,270,21.0,29.0,34,-99.99,,,-99.99,,2014-02-06 06:02:00,
2014-02-05 22:22:00,22.0,-2.0,-100.00,West,270,26.0,31.0,34,-99.99,,,-99.99,,2014-02-06 06:22:00,
2014-02-05 22:42:00,21.0,-3.0,-100.00,West,270,17.0,22.0,34,-99.99,,,-99.99,,2014-02-06 06:42:00,
2014-02-05 22:52:00,21.0,-2.0,-100.00,West,270,16.0,21.0,35,-99.99,,,-99.99,,2014-02-06 06:52:00,
2014-02-05 23:12:00,22.0,-2.0,-100.00,West,270,17.0,24.0,35,-99.99,,,-99.99,,2014-02-06 07:12:00,
2014-02-05 23:21:00,22.0,-2.0,-100.00,West,270,17.0,24.0,35,-99.99,,,-99.99,,2014-02-06 07:21:00,
2014-02-05 23:42:00,22.0,-2.0,-100.00,NW,315,14.0,17.0,35,-99.99,,,-99.99,,2014-02-06 07:42:00,
2014-02-05 23:52:00,22.0,-2.0,-100.00,West,270,14.0,17.0,35,-99.99,,,-99.99,,2014-02-06 07:52:00,